#timestamp,LO_Frequency,Hit,StdDev 
1524625215.4,286047003.9,Y
1524625235.2,286047002.3,P
1524625255.1,286047002.0,P
1524625256.0,286047002.0,P
1524625275.8,286047002.7,Y
1524625295.7,286047001.1,P
1524625315.5,286047001.1,N
1524625335.3,286047000.1,N
1524625355.2,286046998.2,N
1524625375.0,286047001.0,N
1524625375.9,286047001.0,N
1524625395.8,286047001.6,N
1524625415.6,286047000.5,N
1524625435.4,286046998.7,N
1524625455.3,286047001.0,N
1524625475.1,286046998.4,N
1524625495.9,286046998.3,N
1524625515.7,286046999.0,N
1524625535.5,286046998.4,N
1524625555.4,286046997.6,N
1524625575.2,286046997.7,N
1524625595.0,286046999.6,N
1524625595.9,286046999.6,N
1524625615.8,286046996.7,N
1524625635.6,286046997.7,N
1524625655.5,286046994.9,Y
1524625675.3,286046999.6,P
1524625695.1,286046997.1,P
1524625715.9,286046996.9,N
1524625735.7,286046996.9,N
1524625755.6,286046998.7,N
1524625775.4,286047000.8,N
1524625795.2,286046998.7,N
1524625815.1,286046996.9,N
1524625816.0,286046996.9,N
1524625835.8,286046996.9,N
1524625855.6,286046998.7,N
1524625875.5,286046996.5,N
1524625895.3,286046996.8,N
1524625915.2,286046999.2,N
1524625935.9,286046999.3,N
1524625955.7,286046996.7,N
1524625975.6,286046993.3,Y
1524625995.4,286046997.7,P
1524626015.2,286046995.8,P
1524626035.1,286046993.5,P
1524626036.0,286046993.5,Y
1524626055.8,286046999.5,P
1524626075.7,286046998.5,N
1524626095.5,286046997.4,N
1524626115.3,286046998.7,N
1524626135.2,286047001.0,N
1524626155.0,286047000.3,N
1524626155.9,286047000.3,N
1524626175.8,286047001.0,N
1524626195.6,286046998.2,N
1524626215.4,286046997.1,N
1524626235.3,286046997.3,N
1524626255.1,286046996.7,N
1524626275.8,286046997.6,N
1524626295.7,286046997.6,N
1524626315.5,286046997.3,N
1524626335.4,286046997.9,N
1524626355.2,286046997.9,N
1524626375.0,286046994.9,Y
1524626375.9,286046994.9,P
1524626395.8,286046996.8,N
1524626415.6,286046997.6,N
1524626435.4,286046998.0,N
1524626455.3,286046997.2,N
1524626475.1,286046999.5,N
1524626495.9,286046997.1,N
1524626515.7,286046996.5,N
1524626535.5,286046997.7,N
1524626555.4,286046997.6,N
1524626575.2,286046996.5,Y
1524626595.1,286047000.3,P
1524626596.0,286047000.3,N
1524626615.8,286046996.5,N
1524626635.6,286046998.5,N
1524626655.5,286046998.7,N
1524626675.3,286046998.3,N
1524626695.1,286047001.0,N
1524626715.9,286047000.2,N
1524626735.7,286047002.8,N
1524626755.6,286047000.5,N
1524626775.4,286046999.7,N
1524626795.2,286047002.8,N
1524626815.1,286047002.4,N
1524626816.0,286047002.4,N
1524626835.8,286046999.7,N
1524626855.6,286047000.2,N
1524626875.5,286047001.0,N
1524626895.3,286046998.8,N
1524626915.2,286046999.2,N
1524626935.9,286046996.9,N
1524626955.7,286046999.1,N
1524626975.6,286046998.1,N
1524626995.4,286047000.8,N
1524627015.2,286046998.2,N
1524627035.1,286046998.1,N
1524627036.0,286046998.1,N
1524627055.8,286046998.8,N
1524627075.7,286046997.4,N
1524627095.5,286046996.7,N
1524627115.3,286046996.8,N
1524627135.2,286046997.2,N
1524627155.0,286046997.8,N
1524627155.9,286046997.8,N
1524627175.8,286046994.9,N
1524627195.6,286046995.7,N
1524627215.4,286046994.9,N
1524627235.3,286046996.7,N
1524627255.1,286046997.4,N
1524627275.8,286046999.2,N
1524627295.7,286047001.2,N
1524627315.5,286046998.6,N
1524627335.4,286046996.8,N
1524627355.2,286046997.1,N
1524627375.0,286046997.4,N
1524627375.9,286046997.4,N
1524627395.8,286046999.5,N
1524627415.6,286046999.4,N
1524627435.4,286046996.8,N
1524627455.3,286046997.2,N
1524627475.1,286046998.8,N
1524627495.9,286046997.0,N
1524627515.7,286046997.9,N
1524627535.5,286046997.1,N
1524627555.4,286046995.3,Y
1524627575.2,286046998.2,P
1524627595.1,286046998.2,P
1524627626.0,286047001.2,E
1524627635.9,286046998.5,N
1524627655.7,286046998.7,P
1524627675.6,286046996.9,P
1524627695.4,286046996.5,Y
1524627715.3,286046998.5,P
1524627735.1,286047000.9,P
1524627736.0,286047000.9,N
1524627755.8,286046998.3,N
1524627775.7,286046998.6,N
1524627795.5,286047000.9,N
1524627815.3,286047001.2,N
1524627835.2,286047000.8,N
1524627855.0,286047000.8,N
1524627855.9,286047000.8,N
1524627875.8,286047000.3,N
1524627895.6,286047002.1,N
1524627915.4,286047000.2,N
1524627935.3,286047002.7,N
1524627955.1,286046999.7,N
1524627975.9,286047000.7,N
1524627995.7,286047000.4,N
1524628015.5,286047001.2,N
1524628035.4,286047000.4,N
1524628055.2,286047000.8,N
1524628075.0,286046998.5,N
1524628075.9,286046998.5,N
1524628095.8,286046999.8,N
1524628115.6,286047000.0,N
1524628135.5,286047002.8,N
1524628155.3,286047002.1,N
1524628175.1,286047001.5,N
1524628195.9,286047001.7,N
1524628215.7,286047001.8,N
1524628235.5,286047002.6,N
1524628255.4,286047001.8,N
1524628275.2,286047003.9,Y
1524628295.1,286047003.2,P
1524628296.0,286047003.2,N
1524628315.8,286047003.1,N
1524628335.6,286047005.5,Y
1524628355.5,286047002.8,P
1524628375.3,286047002.6,P
1524628395.2,286047001.8,P
1524628415.9,286047001.0,N
1524628435.7,286047000.1,N
1524628455.6,286047001.1,N
1524628475.4,286047000.8,N
1524628495.2,286047002.4,N
1524628515.1,286047000.8,N
1524628516.0,286047000.8,N
1524628535.8,286047001.1,N
1524628555.7,286046998.9,N
1524628575.5,286046999.3,N
1524628595.3,286046998.5,N
1524628615.2,286047000.9,N
1524628635.0,286047000.4,N
1524628635.9,286047000.4,N
1524628655.8,286047000.5,N
1524628675.6,286047000.1,N
1524628695.4,286047002.2,N
1524628715.3,286047002.0,N
1524628735.1,286047001.4,N
1524628755.8,286047001.7,N
1524628775.7,286047004.2,Y
1524628795.5,286046999.7,P
